Location: Albany
(35.0000°S, 118.0000°E)
Time: 02:32:48
(UTC-04:00)

JAS-1B - Pass Details

Date: 19 February 2018
Orbit: 912 x 1743 km, 99.1° (Epoch: 20 June)

Event Time Altitude Azimuth Distance (km) Brightness Sun altitude
Rises 10:50:42 0° 167° (SSE) 4,452 11.1 -43.3°
Reaches altitude 10° 10:53:18 10° 165° (SSE) 3,571 10.4 -43.4°
Enters shadow 10:59:22 54° 159° (SSE) 1,861 8.4 -43.6°
